Regional Weather Roundup
Issued by NWS

Home | Current Version | Previous Version | Graphics & Text | Print | Product List | Glossary On
Versions: 1 2 3 4 5 6 7 8 9 10 11 12 13 14 15 16 17 18 19 20 21 22 23 24 25 26 27 28 29 30 31 32 33 34 35 36 37 38 39 40 41 42 43 44 45 46 47 48 49 50
000
ASUS43 KIND 290509
RWRIN

WEATHER ROUNDUP FOR INDIANA
NATIONAL WEATHER SERVICE INDIANAPOLIS IN
100 AM EDT TUE JUL 29 2014

NOTE: "FAIR" INDICATES FEW OR NO CLOUDS BELOW 12,000 FEET WITH NO
SIGNIFICANT WEATHER AND/OR OBSTRUCTIONS TO VISIBILITY.

* - STATION DOES NOT REPORT WEATHER SUCH AS PRECIPITATION OR FOG.

+ - STATION NOT QUALITY CONTROLLED BY THE NATIONAL WEATHER SERVICE.
    USE DATA WITH CAUTION...ESPECIALLY DEWPOINT AND RELATIVE
    HUMIDITY OBSERVATIONS.

INZ001>003-010>013-019-020-290600-
NORTHWEST INDIANA

CITY           SKY/WX    TMP DP  RH WIND       PRES   REMARKS
GARY /AIRPORT/ CLOUDY    61  56  84 CALM      30.07S
KNOX *+        PTCLDY    51  47  88 CALM      30.05S
LA PORTE +     CLOUDY    56  51  84 NW3       30.07S
MICHIGAN CITY+ CLOUDY    55  52  88 CALM      30.06F
MONTICELLO +   PTCLDY    51  50  96 CALM      30.05F
RENSSELAER +   CLEAR     52  52 100 NW3       30.07F
VALPARAISO     CLOUDY    56  51  84 NW3       30.06F

$$

LMZ046-743>745-290600-
SOUTHERN LAKE MICHIGAN

STATION/POSITION TIME  TEMP WIND        PRES
                       AIR  DIR/SP/G
                 (UTC) (F)  (DEG/KT/KT) (MB)
MICHIGAN CITY    0500   64  350/  8/ 10   N/A

$$

INZ004-005-014>016-021>024-290600-
NORTH CENTRAL INDIANA

CITY           SKY/WX    TMP DP  RH WIND       PRES   REMARKS
GOSHEN         CLEAR     51  47  86 NW7       30.04S
LOGANSPORT +   MOCLDY    52  46  82 N3        30.06F
PERU/GRISSOM   CLEAR     54  51  90 NW3       30.05F
ROCHESTER +    PTCLDY    54  48  82 NW3       30.06S
SOUTH BEND     MOCLDY    56  48  74 NW6       30.06R
WARSAW +       CLEAR     48  46  93 CALM      30.05S

$$

INZ006>009-017-018-025>027-290600-
NORTHEAST INDIANA

CITY           SKY/WX    TMP DP  RH WIND       PRES   REMARKS
ANGOLA *+      CLEAR     54  50  87 N5        30.03F
AUBURN +       CLEAR     54  48  82 NW3       30.04S
FORT WAYNE     PTCLDY    53  49  86 N3        30.04S
HUNTINGTON +   CLEAR     52  49  89 CALM      30.04S

$$

INZ028-029-035-036-043>045-051>053-290600-
WEST CENTRAL INDIANA

CITY           SKY/WX    TMP DP  RH WIND       PRES   REMARKS
GREENCASTLE +  CLEAR     55  46  71 N6        30.07R
LAFAYETTE      CLEAR     50  49  96 NW6       30.07S
TERRE HAUTE    CLEAR     54  50  86 CALM      30.08R

$$

INZ030>032-037>040-046>048-054>057-064-065-290600-
CENTRAL INDIANA

CITY           SKY/WX    TMP DP  RH WIND       PRES   REMARKS
CP ATTERBURY + CLEAR     54  46  76 N6        30.06R
FRANKFORT +    CLEAR     52  48  87 NW5       30.07
GREENWOOD *+   CLEAR     59  50  72 N8        30.05
INDIANAPOLIS   CLEAR     57  47  69 N12       30.04R
-EAGLE CREEK   CLEAR     56  47  71 N9        30.05R
KOKOMO *+      CLEAR     54  48  82 NW6       30.05F
MARION +       CLEAR     50  48  93 CALM      30.05S
MT COMFORT *+  CLEAR     52  52 100 N7        30.05S
SHELBYVILLE    CLEAR     54  48  80 N7        30.04R
ZIONSVILLE +   CLEAR     54  47  78 N7        30.06S

$$

INZ033-034-041-042-049-050-058-059-290600-
EAST CENTRAL INDIANA

CITY           SKY/WX    TMP DP  RH WIND       PRES   REMARKS
MUNCIE         CLEAR     51  48  89 NW6       30.04S

$$

INZ060-061-067>069-081>083-085>088-290600-
SOUTHWEST INDIANA

CITY           SKY/WX    TMP DP  RH WIND       PRES   REMARKS
EVANSVILLE     CLEAR     64  52  64 N7        30.09S
WASHINGTON +   CLEAR     53  52  95 NW3       30.08R

$$

INZ062-063-066-070>080-084-089>092-290600-
SOUTH CENTRAL AND SOUTHEAST INDIANA

CITY           SKY/WX    TMP DP  RH WIND       PRES   REMARKS
BEDFORD +      CLEAR     55  46  71 CALM      30.07
BLOOMINGTON    CLEAR     54  48  80 W5        30.07R
NORTH VERNON + CLEAR     54  52  94 CALM      30.05

$$



USA.gov is the U.S. government's official web portal to all federal, state and local government web resources and services.